sat.trackr.live / text

‹ back to catalog

PRAETORIAN SDA_613

NORAD 65576 · 2025-203M

PAYLOAD ACTIVE UNKNOWN

§ Identity

Operator
Country
US
Launch date
2025-09-10
Launch site
AFWTR
Launch vehicle
Mass (kg)
RCS (m²)

Purposes: military

External: N2YO · Heavens-Above · Gunter

§ Orbital elements

Epoch: 2026-05-23T00:39:08.433216Z

Period
104.13 min
Inclination
81.3009°
Eccentricity
0.0004751
Mean motion
13.82825318 rev/d
Perigee alt
950.4 km
Apogee alt
957.4 km
Semi-major
7,332.0 km
B*
-1.4623e-4
RAAN
34.1803°
Arg perigee
263.8752°
Mean anomaly
96.1863°
Rev number
3,520

§ Raw data

PRAETORIAN SDA_6131 65576U 25203M   26143.02718094 -.00000147  00000+0 -14623-3 0  99902 65576  81.3009  34.1803 0004751 263.8752  96.1863 13.82825318 35205

JSON: /api/v1/satellites/65576 · /tle

For live sub-satellite position, see the globe view (requires WebGL).

§ Visibility from observer

Set your observer location to see the next 7 days of passes ≥ 10°. The values pass through the URL so the page stays shareable.

No JS? Fill the form by hand. The geolocation button needs JavaScript.